New York, NY

7:42 PM EST on November 14, 2019 (GMT -0500)
La Guardia

Weather History for KLGA - August, 2019

Change the Weather History Date:

Wednesday, August 7, 2019

  Actual Average Record
Temperature  
Mean Temperature 79 °F 77 °F  
Max Temperature 87 °F 85 °F 99 °F (2001)
Min Temperature 70 °F 70 °F 61 °F (1975)
Degree Days  
Heating Degree Days 0 0  
Month to date heating degree days 0 0  
Since 1 June heating degree days 4 16  
Since 1 July heating degree days 0 0  
Cooling Degree Days 14 12  
Month to date cooling degree days 100 88  
Year to date cooling degree days 925 770  
Since 1 June cooling degree days 863 704  
Growing Degree Days 29 (Base 50)    
Moisture  
Dew Point 69 °F    
Average Humidity 78    
Maximum Humidity 90    
Minimum Humidity 65    
Precipitation  
Precipitation 0.62 in 0.13 in 1.31 in (1946)
Month to date precipitation 0.74 1.04  
Year to date precipitation 33.44 27.17  
Snow  
Snow 0.00 in 0.00 in - ()
Month to date snowfall 0.0 0.0  
Since 1 July snowfall 0.0 0.0  
Snow Depth 0.00 in    
Sea Level Pressure  
Sea Level Pressure 29.80 in    
Wind  
Wind Speed 9 mph (South)    
Max Wind Speed 24 mph    
Max Gust Speed 31 mph    
Visibility 9 miles    
Events Rain , Thunderstorm    
T = Trace of Precipitation, MM = Missing Value Source: NWS Daily Summary

Daily Weather History Graph

Daily Weather History Graph

Search for Another Location

Airport or City:

Astronomy

Aug. 07, 2019 Rise Set
Actual Time 5:57 AM EDT 8:04 PM EDT
Civil Twilight 5:27 AM EDT 8:34 PM EDT
Nautical Twilight 4:50 AM EDT 9:11 PM EDT
Astronomical Twilight 4:09 AM EDT 9:51 PM EDT
Moon 1:29 PM EDT (8/7) No Moon Set
Length of Visible Light 15h 07m
Length of Day
14h 06m
Waxing Crescent, 49% of the Moon is Illuminated
Aug 7
Waxing Crescent
Aug 7
First Quarter
Aug 15
Full
Aug 23
Last Quarter
Aug 30
New

Hourly Weather History & Observations

Time (EDT) Temp. Heat Index Dew Point Humidity Pressure Visibility Wind Dir Wind Speed Gust Speed Precip Events Conditions
12:51 AM 75.9 °F - 66.9 °F 74% 29.84 in 10.0 mi South 5.8 mph - N/A   Mostly Cloudy
1:51 AM 75.9 °F - 68.0 °F 76% 29.84 in 10.0 mi South 3.5 mph - N/A   Mostly Cloudy
2:51 AM 75.9 °F - 69.1 °F 79% 29.83 in 10.0 mi SSW 4.6 mph - N/A   Mostly Cloudy
3:51 AM 75.9 °F - 69.1 °F 79% 29.83 in 10.0 mi SSW 5.8 mph - N/A   Mostly Cloudy
4:44 AM 75.9 °F - 69.1 °F 79% 29.82 in 10.0 mi SSW 5.8 mph - N/A   Overcast
4:51 AM 75.9 °F - 69.1 °F 79% 29.82 in 10.0 mi SW 5.8 mph - N/A   Overcast
5:51 AM 77.0 °F - 69.1 °F 76% 29.83 in 10.0 mi South 6.9 mph - N/A   Mostly Cloudy
6:51 AM 77.0 °F - 69.1 °F 76% 29.83 in 10.0 mi South 8.1 mph 16.1 mph N/A   Mostly Cloudy
7:51 AM 75.9 °F - 70.0 °F 82% 29.84 in 10.0 mi South 11.5 mph - N/A   Mostly Cloudy
8:51 AM 77.0 °F - 69.1 °F 76% 29.84 in 10.0 mi South 10.4 mph - N/A   Scattered Clouds
10:51 AM 82.9 °F 86.5 °F 69.1 °F 63% 29.83 in 10.0 mi South 13.8 mph - N/A   Scattered Clouds
11:05 AM 82.0 °F 85.9 °F 70.0 °F 67% 29.82 in 10.0 mi South 15.0 mph - N/A   Mostly Cloudy
11:51 AM 82.9 °F 86.5 °F 69.1 °F 63% 29.83 in 10.0 mi SSE 16.1 mph - N/A   Mostly Cloudy
12:19 PM 84.0 °F 88.4 °F 70.0 °F 63% 29.82 in 10.0 mi South 18.4 mph 26.5 mph N/A   Scattered Clouds
12:51 PM 84.0 °F 89.0 °F 71.1 °F 65% 29.82 in 10.0 mi South 12.7 mph 21.9 mph N/A   Partly Cloudy
1:51 PM 84.0 °F 89.0 °F 71.1 °F 65% 29.78 in 10.0 mi South 17.3 mph 25.3 mph N/A   Mostly Cloudy
2:30 PM 82.0 °F 86.3 °F 71.1 °F 69% 29.79 in 10.0 mi South 16.1 mph 26.5 mph N/A Thunderstorm Thunderstorm
2:51 PM 82.0 °F 86.7 °F 72.0 °F 71% 29.78 in 10.0 mi South 17.3 mph 23.0 mph N/A Thunderstorm Thunderstorm
3:00 PM 81.0 °F 85.2 °F 72.0 °F 74% 29.79 in 10.0 mi South 15.0 mph 27.6 mph N/A Thunderstorm Thunderstorm
3:47 PM 77.0 °F - 68.0 °F 74% 29.77 in 10.0 mi WSW 8.1 mph - 0.00 in Rain Light Rain
3:51 PM 78.1 °F - 68.0 °F 71% 29.76 in 10.0 mi Variable 4.6 mph - 0.00 in Rain Light Rain
4:33 PM 79.0 °F - 71.1 °F 77% 29.75 in 10.0 mi SE 8.1 mph - 0.00 in Rain , Thunderstorm Light Thunderstorms and Rain
4:49 PM 78.8 °F - 73.4 °F 83% 29.73 in 10.0 mi SSE 10.4 mph - 0.00 in Rain , Thunderstorm Light Thunderstorms and Rain
4:51 PM 79.0 °F - 73.0 °F 82% 29.73 in 10.0 mi SSE 10.4 mph - 0.00 in Rain , Thunderstorm Light Thunderstorms and Rain
5:48 PM 75.2 °F - 69.8 °F 83% 29.76 in 5.0 mi West 10.4 mph 21.9 mph 0.01 in Rain , Thunderstorm Light Thunderstorms and Rain
5:51 PM 75.9 °F - 68.0 °F 76% 29.76 in 5.0 mi West 11.5 mph 21.9 mph 0.01 in Rain , Thunderstorm Light Thunderstorms and Rain
6:08 PM 73.9 °F - 68.0 °F 82% 29.78 in 1.0 mi West 21.9 mph 29.9 mph 0.09 in Rain , Thunderstorm Heavy Thunderstorms and Rain
6:25 PM 71.1 °F - 66.0 °F 84% 29.77 in 4.0 mi SW 4.6 mph - 0.44 in Rain , Thunderstorm Light Thunderstorms and Rain
6:51 PM 72.0 °F - 66.9 °F 84% 29.78 in 7.0 mi Calm Calm - 0.46 in Rain , Thunderstorm Light Thunderstorms and Rain
7:51 PM 72.0 °F - 68.0 °F 87% 29.81 in 5.0 mi South 9.2 mph - 0.05 in Rain , Thunderstorm Light Thunderstorms and Rain
8:42 PM 71.1 °F - 66.0 °F 84% 29.78 in 10.0 mi SSW 4.6 mph - 0.08 in Rain Light Rain
8:51 PM 71.1 °F - 66.0 °F 84% 29.78 in 10.0 mi SSW 8.1 mph - 0.09 in Rain Light Rain
9:51 PM 72.0 °F - 66.0 °F 81% 29.75 in 10.0 mi SSE 5.8 mph - 0.01 in   Mostly Cloudy
10:51 PM 72.0 °F - 66.9 °F 84% 29.76 in 10.0 mi South 6.9 mph - 0.00 in Rain Light Rain
11:51 PM 72.0 °F - 68.0 °F 87% 29.76 in 10.0 mi SSW 6.9 mph - 0.00 in   Mostly Cloudy